Date,TemperatureHighF,TemperatureAvgF,TemperatureLowF,DewpointHighF,DewpointAvgF,DewpointLowF,HumidityHigh,HumidityAvg,HumidityLow,PressureMaxIn,PressureMinIn,WindSpeedMaxMPH,WindSpeedAvgMPH,GustSpeedMaxMPH,PrecipitationSumIn
2013-1-1,56.0,44.0,33.0,48.9,-14.5,-57.7,83,30,1,30.11,29.98,7,1,11,0.00
2013-1-2,54.0,36.9,28.0,48.0,-42.3,-60.8,83,11,1,30.04,29.93,4,0,7,0.01
2013-1-3,57.0,41.3,29.0,50.9,-21.5,-60.2,83,26,1,30.10,29.92,2,0,6,0.00
2013-1-4,57.0,40.8,27.0,51.5,-30.0,-61.4,84,20,1,30.16,30.00,5,0,7,0.01
2013-1-5,63.0,47.5,32.0,51.9,4.1,-58.3,83,40,1,30.14,29.91,2,0,14,0.00
2013-1-6,51.0,46.3,42.0,43.7,-25.4,-52.1,77,15,1,29.99,29.91,10,3,16,0.15
2013-1-7,55.0,44.4,37.0,50.2,-28.7,-55.2,85,18,1,30.10,29.94,6,1,12,0.00
2013-1-8,60.0,43.1,32.0,52.5,-24.5,-58.3,83,23,1,30.10,29.94,7,0,9,0.00
2013-1-9,62.0,47.5,34.0,55.7,-22.1,-57.1,82,21,1,29.96,29.79,7,1,22,0.00
2013-1-10,50.0,41.8,33.0,43.1,-9.4,-57.1,85,34,1,29.93,29.84,20,4,34,0.05
2013-1-11,50.0,37.6,27.0,42.4,-4.1,-61.4,86,41,1,30.06,29.90,7,1,12,0.00
2013-1-12,51.0,37.9,29.0,41.1,-10.1,-60.2,87,36,1,30.07,29.90,7,1,12,0.00
2013-1-13,49.0,35.8,25.0,41.1,-13.1,-62.7,89,35,1,30.05,29.91,7,1,10,0.00
2013-1-14,50.0,36.5,25.0,38.5,-6.9,-62.7,90,38,1,30.21,29.95,6,1,9,0.00
2013-1-15,54.0,38.1,26.0,41.0,-2.7,-62.1,90,41,1,30.32,30.15,7,1,11,0.00
2013-1-16,58.0,41.8,27.0,42.4,6.8,-61.4,88,43,1,30.26,30.05,2,0,6,0.00
2013-1-17,63.0,43.5,29.0,47.6,-2.8,-60.2,85,35,1,30.13,29.97,1,0,6,0.00
2013-1-18,64.0,46.1,32.0,51.5,-5.8,-58.3,85,32,1,30.11,29.96,0,0,7,0.00
2013-1-19,64.0,43.6,30.0,51.2,-16.8,-59.6,86,27,1,30.12,29.96,4,0,9,0.00
2013-1-20,63.0,44.3,31.0,51.3,-14.0,-58.9,87,28,1,30.12,29.98,5,0,7,0.00
2013-1-21,67.0,46.6,31.0,53.5,-3.7,-58.9,86,33,1,30.08,29.91,2,0,5,0.00
2013-1-22,69.0,46.3,32.0,48.9,-5.8,-58.3,87,34,1,30.03,29.87,5,1,9,0.00
2013-1-23,63.0,51.1,40.0,50.9,28.1,-53.3,86,57,1,29.95,29.81,7,2,13,0.00
2013-1-24,62.0,55.6,50.0,54.7,0.3,-47.2,86,33,1,30.04,29.90,6,1,11,0.04
2013-1-25,57.0,53.8,51.0,-42.9,-44.9,-46.6,1,1,1,30.04,29.90,7,1,10,0.01
2013-1-26,60.0,55.1,48.0,8.5,-42.8,-46.0,17,1,1,29.90,29.82,8,1,17,0.03
2013-1-27,49.0,45.9,42.0,36.4,5.1,-52.1,69,34,1,29.95,29.83,12,5,20,0.01
2013-2-7,57.0,49.5,44.0,50.6,-2.0,-50.9,86,37,1,29.95,29.81,10,4,17,0.04
2013-2-8,49.0,42.8,40.0,-5.6,-50.5,-53.3,11,1,1,29.80,29.72,6,1,13,0.11
2013-2-9,55.0,44.6,35.0,45.3,4.3,-56.4,87,45,1,29.92,29.75,12,3,13,0.00
2013-2-10,57.0,42.7,31.0,44.1,-1.8,-58.9,88,38,1,29.94,29.84,7,1,12,0.00
2013-2-11,60.0,46.5,32.0,44.0,12.4,-58.3,87,41,1,30.07,29.85,6,1,10,0.00
2013-2-12,65.0,48.2,34.0,46.0,24.4,-52.7,83,44,1,30.26,30.03,5,0,9,0.00
2013-2-13,64.0,51.2,34.0,44.3,30.6,-57.1,87,56,1,30.21,30.03,7,1,8,0.00
2013-2-14,66.0,49.2,35.0,49.2,9.0,-56.4,83,38,1,30.17,29.98,6,0,8,0.00
2013-2-15,72.0,54.3,39.0,55.5,10.1,-54.0,87,39,1,30.20,30.01,2,0,6,0.00
2013-2-16,70.0,53.7,40.0,48.4,16.4,-53.3,85,41,1,30.12,29.85,6,1,11,0.00
2013-2-17,68.0,54.2,38.0,52.0,38.9,-10.2,88,59,12,29.93,29.77,7,1,10,0.00
2013-2-18,70.0,52.7,38.0,52.1,14.1,-54.6,89,44,1,29.91,29.75,9,2,12,0.00
2013-2-19,52.0,44.4,37.0,46.6,6.9,-55.2,88,45,1,29.77,29.54,12,3,21,0.43
2013-2-20,52.0,42.3,37.0,45.3,-19.9,-55.2,87,28,1,29.85,29.58,7,1,10,0.02
2013-2-21,56.0,50.2,39.0,44.4,33.1,-54.0,89,63,1,29.98,29.91,9,3,13,0.00
2013-2-22,62.0,56.3,42.0,48.9,41.9,24.2,84,60,42,30.11,30.03,9,2,10,0.00
2013-2-23,61.0,49.9,36.0,52.2,20.5,-55.8,88,54,1,30.06,29.92,10,2,16,0.00
2013-2-24,61.0,44.0,34.0,40.5,18.1,-56.4,90,51,1,30.09,29.89,15,3,19,0.00
2013-2-25,67.0,50.2,36.0,45.3,34.5,6.8,89,58,29,30.15,29.96,10,1,12,0.00
2013-2-26,65.0,48.9,36.0,48.0,28.0,-55.8,89,56,1,30.05,29.90,10,2,13,0.00
2013-2-27,70.0,52.5,36.0,50.2,19.4,-55.8,88,44,1,30.24,30.01,2,0,7,0.00
2013-2-28,70.0,56.5,39.0,47.3,40.0,30.3,88,58,33,30.36,30.13,5,0,9,0.00
2013-3-1,75.0,58.0,41.0,52.5,43.2,3.0,90,62,20,30.31,30.13,7,0,10,0.00
2013-3-2,82.0,64.1,45.0,53.0,39.1,-49.6,87,45,1,30.17,29.97,3,0,8,0.00
2013-3-3,70.0,61.5,51.0,55.1,49.7,44.0,90,67,41,30.01,29.87,9,3,13,0.00
2013-3-4,72.0,56.8,43.0,56.6,24.1,-51.5,87,50,1,30.04,29.87,9,1,12,0.00
2013-3-5,72.0,57.2,45.0,54.1,35.3,-50.3,87,56,1,29.97,29.82,12,3,16,0.00
2013-3-6,63.0,53.4,46.0,54.8,32.8,-49.6,89,63,1,30.00,29.80,10,2,16,0.04
2013-3-7,63.0,51.5,45.0,53.2,-6.7,-50.3,87,28,1,29.86,29.66,6,1,15,0.02
2013-3-8,48.0,45.3,43.0,-48.4,-50.1,-51.5,1,1,1,29.86,29.60,9,3,14,0.40
2013-3-9,61.0,50.8,44.0,55.5,8.4,-50.9,86,46,1,30.15,29.87,6,1,10,0.00
2013-3-10,67.0,58.3,47.0,53.1,32.8,-49.0,80,51,1,30.28,30.09,7,1,13,0.00
2013-3-11,71.0,56.4,40.0,56.4,7.4,-53.3,86,36,1,30.17,29.99,7,1,12,0.00
2013-3-12,76.0,60.3,43.0,57.8,12.3,-51.5,86,35,1,30.10,29.92,8,1,13,0.00
2013-3-13,84.0,63.1,47.0,60.8,20.6,-49.0,81,35,1,30.13,29.97,7,0,13,0.00
2013-3-14,84.0,66.3,50.0,62.8,38.8,-47.2,85,48,1,30.11,29.95,10,1,11,0.00
2013-3-15,77.0,63.4,50.0,63.7,22.3,-47.2,86,45,1,30.02,29.89,9,1,15,0.00
2013-3-16,78.0,61.2,49.0,61.5,10.9,-47.8,83,33,1,30.01,29.83,7,2,13,0.00
2013-3-17,74.0,60.0,46.0,53.5,45.5,26.7,88,61,39,30.02,29.84,10,2,16,0.00
2013-3-18,72.0,57.4,42.0,50.6,32.4,-52.1,87,51,1,30.02,29.83,8,1,13,0.00
2013-3-19,78.0,62.6,47.0,53.5,35.1,-49.0,87,49,1,30.05,29.89,16,2,23,0.00
2013-3-20,71.0,62.0,53.0,59.8,40.1,-45.3,87,60,1,30.03,29.91,12,2,26,0.00
2013-3-21,68.0,56.2,48.0,58.4,5.3,-48.4,88,40,1,29.93,29.81,9,2,15,0.00
2013-3-22,68.0,54.2,39.0,46.7,23.2,-54.0,83,43,1,29.95,29.76,9,3,16,0.00
2013-3-23,71.0,53.4,38.0,46.0,36.8,31.6,90,58,27,30.03,29.84,10,2,15,0.00
2013-3-24,75.0,58.2,41.0,47.3,38.1,-51.5,91,56,1,30.01,29.84,9,1,13,0.00
2013-3-25,76.0,59.6,45.0,52.9,43.9,24.2,90,59,34,29.94,29.78,9,2,12,0.00
2013-3-26,76.0,61.0,44.0,55.4,30.9,-50.9,84,47,1,29.91,29.73,6,1,15,0.00
2013-3-27,77.0,60.4,47.0,57.6,32.4,-49.0,89,53,1,29.92,29.75,10,2,18,0.00
2013-3-28,72.0,60.4,48.0,62.1,30.2,-48.4,87,54,1,30.03,29.86,6,1,10,0.00
2013-3-29,81.0,64.3,49.0,59.9,33.8,-46.0,87,46,1,30.05,29.89,10,1,12,0.00
2013-3-30,84.0,67.3,53.0,56.4,52.1,39.9,89,63,32,30.03,29.87,9,1,16,0.00
2013-3-31,76.0,64.8,56.0,60.0,28.2,-43.5,88,46,1,30.06,29.91,10,3,15,0.14
2013-4-1,74.0,60.0,49.0,56.9,32.3,-47.8,88,51,1,30.10,29.93,9,3,14,0.00
2013-4-2,74.0,59.5,46.0,58.5,15.2,-49.6,84,38,1,30.06,29.93,9,2,14,0.00
2013-4-3,67.0,54.3,49.0,59.2,-1.8,-47.8,84,27,1,30.06,29.92,8,2,10,0.00
2013-4-10,79.0,68.6,60.0,48.6,42.9,38.7,66,43,25,30.04,29.91,7,1,10,0.00
2013-4-11,78.0,64.9,49.0,57.4,50.8,34.4,90,63,38,29.90,29.70,14,3,20,0.00
2013-4-12,82.0,67.6,50.0,58.0,29.4,-47.2,88,39,1,29.86,29.67,11,1,12,0.00
2013-4-13,82.0,67.6,52.0,57.4,41.8,-46.0,84,47,1,29.82,29.66,8,2,13,0.00
2013-4-14,77.0,64.0,49.0,55.0,45.4,27.4,91,55,27,29.82,29.65,9,4,18,0.00
2013-4-15,71.0,58.3,46.0,53.6,39.1,-49.0,90,57,1,29.80,29.66,19,5,31,0.00
2013-4-16,55.0,44.2,37.0,46.0,35.7,24.0,89,73,55,29.91,29.72,3,0,12,0.00
2013-4-21,87.0,77.5,60.0,57.0,48.0,44.1,90,39,24,29.97,29.83,5,1,10,0.00
2013-4-22,87.0,72.8,53.0,56.4,50.2,43.4,91,51,22,29.94,29.72,8,1,13,0.00
2013-4-23,87.0,68.5,51.0,60.2,37.1,-46.6,91,43,1,29.90,29.68,7,1,11,0.00
2013-4-24,87.0,70.3,51.0,56.1,43.1,8.5,86,42,17,29.81,29.65,9,2,13,0.00
2013-4-25,79.0,65.4,54.0,57.6,53.6,42.1,90,68,43,29.99,29.75,12,3,17,0.00
2013-4-26,84.0,69.1,51.0,60.8,33.3,-46.6,83,41,1,30.15,29.93,11,1,12,0.00
2013-4-27,88.0,70.6,53.0,59.0,46.9,2.5,88,47,12,30.16,29.93,7,1,12,0.00
2013-4-28,90.0,74.9,56.0,62.0,49.5,8.2,86,45,14,29.98,29.77,9,2,16,0.00
2013-4-29,90.0,73.7,56.0,61.3,55.4,48.5,90,58,29,29.88,29.64,7,1,13,0.00
2013-4-30,85.0,70.5,55.0,60.8,43.7,-44.1,90,46,1,29.77,29.59,11,3,19,0.00
2013-5-1,86.0,68.7,51.0,57.7,43.7,35.6,89,47,19,30.00,29.70,8,2,13,0.00
2013-5-2,90.0,71.8,54.0,59.1,48.1,33.5,90,53,14,30.17,29.94,7,1,13,0.00
2013-5-3,90.0,71.2,57.0,61.0,50.1,42.1,89,53,19,29.96,29.67,9,2,15,0.00
2013-5-4,91.0,73.5,55.0,59.1,48.3,36.2,91,49,18,29.70,29.52,10,2,16,0.00
2013-5-5,81.0,66.8,53.0,53.8,48.4,34.5,92,55,30,29.75,29.53,12,4,23,0.00
2013-5-6,75.0,66.8,59.0,54.8,50.4,46.9,86,58,37,29.86,29.74,9,2,17,0.00
2013-5-7,70.0,60.4,54.0,61.7,18.6,-44.7,89,47,1,29.97,29.85,12,2,17,0.22
2013-5-8,76.0,63.5,53.0,63.2,11.1,-45.3,88,36,1,30.04,29.88,10,1,16,0.00
2013-5-9,81.0,66.7,52.0,63.0,17.6,-46.0,83,34,1,30.07,29.91,9,2,14,0.00
2013-5-10,86.0,78.1,66.0,65.1,60.1,48.8,84,56,39,30.08,30.01,6,1,11,0.00
2013-5-11,93.0,77.0,60.0,69.5,41.8,-41.1,87,44,1,30.11,29.96,7,1,13,0.00
2013-5-12,96.0,77.3,62.0,69.7,33.4,-39.9,86,38,1,30.10,29.91,9,2,14,0.00
2013-5-13,95.0,77.7,59.0,66.1,46.5,-41.7,90,44,1,30.05,29.82,6,1,10,0.00
2013-5-14,92.0,74.8,60.0,67.2,51.1,-11.3,88,52,5,29.94,29.77,10,2,17,0.00
2013-5-15,88.0,73.7,58.0,63.8,53.4,42.4,88,54,27,29.99,29.83,9,2,15,0.00
2013-5-16,73.0,66.1,52.0,58.6,48.8,-46.0,91,60,1,29.95,29.80,13,3,20,0.00
2013-5-17,79.0,66.9,52.0,57.4,48.7,40.9,92,57,30,29.95,29.79,12,4,16,0.00
2013-5-18,81.0,66.4,47.0,53.5,45.1,36.8,94,52,22,30.06,29.87,9,3,15,0.00
2013-5-19,85.0,69.6,50.0,58.6,49.6,34.0,90,53,29,30.03,29.85,9,2,13,0.00
2013-5-20,91.0,74.3,53.0,57.8,48.9,37.2,91,47,21,30.01,29.81,6,0,11,0.00
2013-5-21,63.0,62.5,62.0,59.4,57.6,55.7,89,84,80,29.80,29.78,2,0,6,0.00
2013-5-22,72.0,64.1,50.0,46.1,36.3,27.8,58,38,20,29.89,29.71,14,4,19,0.00
2013-5-23,75.0,58.9,45.0,46.3,39.0,30.3,86,53,20,29.89,29.69,13,2,18,0.00
2013-5-24,81.0,64.2,44.0,53.8,36.7,-50.9,93,46,1,29.94,29.76,8,2,13,0.00
2013-5-25,82.0,67.7,46.0,54.1,43.4,11.7,92,47,22,29.95,29.76,9,2,14,0.00
2013-5-26,80.0,67.0,53.0,55.7,49.6,44.8,91,57,30,30.03,29.85,14,4,18,0.00
2013-5-27,78.0,67.5,52.0,58.0,51.7,43.8,93,60,34,30.02,29.86,15,5,22,0.00
2013-5-28,80.0,67.2,54.0,63.8,41.0,-44.1,92,54,1,29.88,29.78,15,4,19,0.00
2013-5-29,83.0,70.0,54.0,62.7,43.1,-44.1,90,49,1,29.90,29.73,15,3,21,0.00
2013-5-30,86.0,69.8,53.0,59.3,46.1,-45.3,89,50,1,29.92,29.74,14,2,17,0.00
2013-5-31,89.0,71.7,52.0,60.7,49.4,-1.0,90,50,11,29.96,29.77,6,1,12,0.00
2013-6-1,97.0,75.7,59.0,66.6,57.1,48.8,91,61,21,29.90,29.68,6,1,11,0.00
2013-6-2,100.0,81.4,64.0,65.3,59.3,54.4,91,53,23,29.75,29.60,6,1,10,0.00
2013-6-3,93.0,77.0,61.0,69.1,59.0,53.4,91,59,29,29.79,29.57,12,2,13,0.00
2013-6-4,90.0,76.2,60.0,64.6,59.0,39.7,92,59,31,29.88,29.67,10,2,16,0.00
2013-6-5,91.0,77.2,61.0,67.6,59.2,20.7,89,57,21,29.95,29.78,7,1,15,0.00
2013-6-6,94.0,79.1,61.0,68.5,60.2,25.8,91,56,26,29.90,29.75,7,2,13,0.00
2013-6-7,98.0,82.9,65.0,73.8,50.3,-38.1,89,45,1,29.86,29.68,6,1,12,0.00
2013-6-8,103.0,87.8,71.0,74.2,68.7,63.7,88,58,30,29.79,29.64,7,1,9,0.00
2013-6-9,97.0,83.7,68.0,68.8,60.8,54.7,82,49,27,29.83,29.67,10,3,13,0.00
2013-6-10,83.0,72.1,59.0,64.6,54.7,22.0,93,58,23,29.90,29.70,11,3,19,0.00
2013-6-11,92.0,74.8,58.0,66.6,42.3,-42.3,92,48,1,29.95,29.76,10,2,13,0.00
2013-6-12,94.0,76.0,60.0,69.1,44.5,-41.1,89,45,1,29.94,29.77,10,2,15,0.00
2013-6-13,86.0,72.4,54.0,52.3,44.8,34.5,84,41,16,30.03,29.83,15,3,16,0.00
2013-6-14,91.0,70.4,53.0,60.7,47.6,18.1,91,49,19,29.91,29.73,7,1,13,0.00
2013-6-15,93.0,72.9,56.0,59.7,48.5,35.8,91,51,14,29.89,29.68,7,1,12,0.00
2013-6-16,90.0,74.8,55.0,61.0,50.2,29.2,89,47,20,30.02,29.81,15,3,17,0.00
2013-6-17,90.0,73.5,54.0,59.3,50.9,44.3,92,49,22,30.03,29.86,11,2,17,0.00
2013-6-18,84.0,71.6,56.0,60.7,52.2,43.1,90,55,27,29.97,29.81,15,5,22,0.00
2013-6-19,80.0,68.8,52.0,56.7,48.4,41.2,93,52,27,29.98,29.81,14,4,22,0.00
2013-6-20,86.0,69.7,48.0,58.1,45.0,-46.0,93,47,1,29.92,29.77,13,3,15,0.00
2013-6-21,88.0,73.8,52.0,59.6,49.2,39.8,92,47,22,29.94,29.74,9,2,16,0.00
2013-6-22,93.0,74.2,53.0,61.0,51.3,14.0,94,51,21,29.92,29.72,6,1,12,0.00
2013-6-23,85.0,72.2,59.0,59.7,54.4,45.7,92,57,31,29.82,29.66,12,4,19,0.00
2013-6-24,85.0,71.6,60.0,70.7,43.3,-41.1,93,53,1,29.87,29.69,7,1,20,0.00
2013-6-25,91.0,77.6,62.0,70.3,46.0,-39.9,90,47,1,29.99,29.80,9,2,15,0.00
2013-6-26,93.0,78.6,65.0,74.0,47.3,-38.1,89,50,1,30.03,29.85,12,2,20,0.00
2013-6-27,97.0,81.5,65.0,71.7,58.9,-38.1,90,55,1,30.07,29.90,6,1,14,0.00
2013-6-28,101.0,85.8,67.0,73.4,55.8,-36.9,89,46,1,30.03,29.85,7,1,12,0.00
2013-6-29,103.0,86.6,69.0,73.7,56.9,-35.7,89,45,1,29.93,29.77,6,0,13,0.00
2013-6-30,103.0,89.1,71.0,75.1,63.0,-34.5,89,48,1,29.86,29.71,8,1,14,0.00
2013-7-1,99.0,84.1,70.0,76.6,55.9,-35.1,90,53,1,29.85,29.69,7,1,13,0.00
2013-7-2,108.0,89.4,70.0,76.0,63.8,32.6,90,49,19,29.96,29.76,7,0,12,0.00
2013-7-3,103.0,86.5,71.0,74.8,65.7,56.9,82,54,28,29.92,29.73,6,1,9,0.00
2013-7-4,104.0,88.9,72.0,79.2,68.6,48.5,91,55,29,29.82,29.67,7,1,13,0.00
2013-7-5,101.0,86.3,73.0,75.3,62.9,40.5,89,50,27,29.79,29.64,7,1,10,0.00
2013-7-6,97.0,78.3,62.0,69.5,59.1,46.3,93,58,18,29.80,29.64,4,0,11,0.00
2013-7-7,102.0,82.0,61.0,67.9,59.0,36.9,93,51,20,29.84,29.65,6,1,9,0.00
2013-7-8,101.0,81.2,61.0,71.8,59.0,19.6,93,54,18,29.97,29.73,6,1,11,0.00
2013-7-9,102.0,83.0,61.0,70.2,55.1,-40.5,93,48,1,30.04,29.83,6,1,9,0.00
2013-7-10,100.0,82.0,66.0,71.2,64.2,47.7,91,59,32,29.97,29.81,6,1,10,0.00
2013-7-11,97.0,83.1,71.0,74.5,58.7,49.6,92,48,21,29.92,29.79,6,2,11,0.00
2013-7-12,95.0,78.3,59.0,64.0,54.6,36.5,95,51,18,29.93,29.77,9,2,12,0.00
2013-7-13,97.0,81.9,60.0,68.0,51.3,-41.1,95,43,1,29.96,29.77,9,1,12,0.00
2013-7-14,99.0,81.3,61.0,63.8,54.8,22.9,93,47,16,29.98,29.79,6,2,10,0.00
2013-7-15,95.0,77.8,62.0,63.9,51.9,-0.1,93,47,8,29.88,29.73,9,2,14,0.00
2013-7-16,91.0,76.3,57.0,66.3,55.2,29.9,92,53,24,29.95,29.72,10,2,14,0.00
2013-7-17,91.0,75.1,57.0,67.2,53.5,-2.2,94,52,7,30.06,29.87,7,1,14,0.00
2013-7-18,95.0,77.8,59.0,66.6,48.6,-41.1,91,46,1,30.03,29.85,9,1,12,0.00
2013-7-19,98.0,81.1,61.0,66.6,55.1,24.7,91,46,24,29.92,29.76,6,1,9,0.00
2013-7-20,100.0,82.9,65.0,70.5,61.5,52.9,92,56,21,29.84,29.69,6,0,7,0.00
2013-7-21,104.0,85.9,69.0,71.2,62.8,53.2,93,54,20,29.84,29.67,6,1,13,0.00
2013-7-22,92.0,80.3,73.0,76.8,67.0,59.5,90,67,35,29.94,29.78,9,1,16,0.07
2013-7-23,96.0,80.4,70.0,74.8,33.0,-35.1,91,33,1,30.02,29.85,11,2,15,0.00
2013-7-24,97.0,81.6,65.0,72.3,59.6,27.2,93,53,24,29.99,29.84,9,2,14,0.00
2013-7-25,99.0,83.9,68.0,72.2,62.4,9.3,92,54,10,30.00,29.81,8,2,14,0.00
2013-7-26,98.0,82.9,69.0,72.8,66.1,59.2,92,61,34,30.06,29.89,9,2,13,0.00
2013-7-27,99.0,86.0,73.0,70.2,60.4,52.9,88,47,23,29.99,29.77,7,2,14,0.00
2013-7-28,97.0,82.0,65.0,69.1,59.3,38.9,92,51,24,29.87,29.71,7,2,15,0.00
2013-7-29,96.0,81.7,63.0,68.6,58.1,28.4,91,50,24,29.95,29.72,9,2,12,0.00
2013-7-30,93.0,78.4,61.0,70.0,52.8,-40.5,93,50,1,30.07,29.89,10,2,13,0.00
2013-7-31,93.0,77.3,61.0,68.2,49.5,-40.5,93,48,1,30.08,29.88,10,2,16,0.00
2013-8-1,91.0,74.3,58.0,63.0,51.1,41.8,93,51,19,30.02,29.84,9,3,17,0.00
2013-8-2,92.0,72.1,54.0,62.0,45.9,-42.3,92,47,1,29.96,29.79,7,2,14,0.00
2013-8-3,94.0,75.6,56.0,62.3,53.7,42.8,94,54,20,29.96,29.77,6,1,10,0.00
2013-8-4,94.0,75.2,57.0,62.3,54.1,30.3,92,53,21,29.97,29.79,9,2,12,0.00
2013-8-5,92.0,75.6,59.0,64.0,50.9,-41.1,95,49,1,30.00,29.81,6,1,12,0.00
2013-8-6,92.0,77.4,57.0,64.9,54.5,18.2,94,50,21,29.99,29.80,7,2,12,0.00
2013-8-7,88.0,73.4,58.0,66.3,57.0,32.9,94,61,30,30.07,29.89,8,2,13,0.00
2013-8-8,88.0,73.0,55.0,64.9,50.1,-42.3,95,53,1,29.99,29.81,7,1,13,0.00
2013-8-9,89.0,73.3,55.0,64.6,49.1,-42.3,94,50,1,29.93,29.77,9,1,13,0.00
2013-8-10,90.0,73.6,57.0,65.2,52.1,-42.3,94,55,1,30.02,29.83,6,1,14,0.00
2013-8-11,91.0,74.9,57.0,67.9,47.4,-42.9,94,48,1,29.99,29.85,9,1,15,0.00
2013-8-12,94.0,76.6,57.0,65.9,53.3,-41.1,95,52,1,29.99,29.79,7,1,12,0.00
2013-8-13,95.0,75.1,58.0,64.9,55.1,24.1,94,55,24,29.98,29.81,7,1,12,0.00
2013-8-14,99.0,77.4,58.0,65.3,52.9,-15.7,95,50,4,29.96,29.79,7,1,12,0.00
2013-8-15,98.0,78.1,59.0,65.9,54.8,-4.4,91,50,7,29.97,29.78,6,1,14,0.00
2013-8-16,97.0,78.4,61.0,70.5,53.1,-27.5,95,51,2,29.98,29.81,7,1,13,0.00
2013-8-17,97.0,82.4,63.0,70.1,54.1,-39.3,94,45,1,29.96,29.80,10,2,16,0.00
2013-8-18,98.0,79.4,63.0,70.5,61.8,44.0,95,59,31,29.90,29.75,6,1,10,0.00
2013-8-19,104.0,85.9,71.0,77.7,65.5,42.0,94,57,26,29.92,29.76,5,1,13,0.00